Location: Nassau
(25.0830°N, 77.3500°W)
Time: 13:04:54
(UTC-05:00)

ISS - All Passes

Search period start: 28 November 2014 00:00
Search period end: 08 December 2014 00:00
Orbit: 407 x 417 km, 51.6° (Epoch: 28 November)

Date Brightness Start Highest point End Pass type
(mag) Time Alt. Az. Time Alt. Az. Time Alt. Az.
28 Nov - 06:01:22 10° NNW 06:04:24 34° NE 06:07:27 10° ESE visible
28 Nov - 07:39:51 10° WSW 07:40:44 11° SW 07:41:38 10° SW daylight
28 Nov - 20:59:56 10° SSW 21:03:11 66° SE 21:06:26 10° NE night (unlit)
29 Nov - 05:12:10 10° N 05:14:28 17° NE 05:16:45 10° E visible
29 Nov - 06:48:20 10° WNW 06:51:02 23° SW 06:53:43 10° S daylight
29 Nov - 20:10:33 10° S 20:13:24 27° SE 20:16:14 10° ENE night (unlit)
29 Nov - 21:47:58 10° W 21:50:01 15° NW 21:52:03 10° N night (unlit)
30 Nov - 05:58:01 10° NW 06:01:15 55° SW 06:04:28 10° SSE visible
30 Nov - 19:22:07 10° SSE 19:23:37 13° SE 19:25:08 10° E visible
30 Nov - 20:57:04 10° WSW 21:00:00 30° NW 21:02:56 10° NNE night (unlit)
01 Dec - 05:08:07 10° NNW 05:11:21 59° NE 05:14:36 10° SE visible
01 Dec - 20:06:46 10° SW 20:10:02 69° NW 20:13:18 10° NE visible
02 Dec - 04:18:32 10° NNW 04:21:22 26° NE 04:24:12 10° ESE visible
02 Dec - 05:55:55 10° W 05:57:46 14° SW 05:59:37 10° SSW visible
02 Dec - 19:16:56 10° SSW 19:20:06 47° SE 19:23:17 10° NE visible
02 Dec - 20:56:20 10° NW 20:56:53 10° NW 20:57:27 10° NNW night (unlit)
03 Dec - 03:29:27 10° N 03:31:16 14° NE 03:33:05 10° ENE night (unlit)
03 Dec - 05:04:58 10° WNW 05:07:55 31° SW 05:10:51 10° SSE visible
03 Dec - 18:27:40 10° S 18:30:12 21° SE 18:32:44 10° ENE visible
03 Dec - 20:04:16 10° W 20:06:43 19° NW 20:09:10 10° N visible
04 Dec - 04:14:42 10° NW 04:17:58 77° SW 04:21:14 10° SE visible
04 Dec - 19:13:29 10° WSW 19:16:36 39° NW 19:19:42 10° NNE visible
05 Dec - 03:24:47 10° NNW 03:27:56 43° NE 03:31:04 10° ESE night (unlit)
05 Dec - 18:23:14 10° SW 18:26:31 85° SE 18:29:49 10° NE visible
06 Dec - 02:35:13 10° N 02:37:46 21° NE 02:40:19 10° E night (unlit)
06 Dec - 04:11:52 10° WNW 04:14:15 19° SW 04:16:39 10° S night (unlit)
06 Dec - 17:33:28 10° SSW 17:36:29 34° SE 17:39:30 10° ENE daylight
06 Dec - 19:11:31 10° WNW 19:13:09 13° NW 19:14:48 10° N visible
07 Dec - 01:46:31 10° NNE 01:47:30 11° NE 01:48:29 10° ENE night (unlit)
07 Dec - 03:21:07 10° NW 03:24:15 43° SW 03:27:22 10° SSE night (unlit)
07 Dec - 16:44:25 10° SSE 16:46:28 16° SE 16:48:31 10° E daylight
07 Dec - 18:20:06 10° WSW 18:22:53 25° NW 18:25:40 10° NNE visible
